Home > Weather > Haywards Heath > Past weeks

Flag for United Kingdom Weather for the Past 2 Weeks in Haywards Heath, England, United Kingdom

Now
59 °F

Sunny.


Feels Like: 57 °F
Forecast: 35 / 59 °F
Wind: 10 mph from West

Location: London / Gatwick Airport

Current Time: May 3, 2016 at 4:23:50 PM

Latest Report: May 3, 2016 at 3:50 PM


Visibility: 10 mi

Pressure: 30.30 "Hg

Humidity: 39%

Dew Point: 34 °F

Location of Haywards HeathLocation

Historic Weather in Haywards Heath — Graph

°F

Haywards Heath Temperature Yesterday

Maximum temperature yesterday: 59 °F (at 2:50 PM)
Minimum temperature yesterday: 45 °F (at 10:50 PM)
Average temperature yesterday: 51 °F

High & Low Weather Summary for the Past Weeks

 TemperatureHumidityPressure
High61 °F (Apr 21, 1:50 PM)100% (Apr 20, 5:20 AM)30.45 "Hg (Apr 20, 5:20 AM)
Low30 °F (Apr 28, 4:20 AM)35% (Apr 30, 12:50 PM)29.71 "Hg (Apr 25, 4:20 PM)
Average46 °F72%30.10 "Hg
* Reported Apr 18 3:20 PM — May 3 3:20 PM, Haywards Heath, Weather by CustomWeather, © 2016

Note: Actual official high and low records may vary slightly from our data, if they occured in-between our weather recording intervals... More about our weather records

Advertising

Haywards Heath Weather History for the Previous 24 Hours

Scroll right to see more
 ConditionsComfort  
Time TempWeatherWind HumidityBarometerVisibility
3:20 PM
Tue, May 3
59 °FSunny.13 mph39%30.30 "Hg10 mi
2:50 PM61 °FPassing clouds.10 mph39%30.30 "HgN/A
2:20 PM59 °FSunny.12 mph39%30.30 "Hg10 mi
1:50 PM59 °FSunny.10 mph39%30.30 "Hg10 mi
1:20 PM59 °FSunny.14 mph39%30.30 "Hg10 mi
12:20 PM57 °FScattered clouds.9 mph44%30.30 "HgN/A
11:50 AM55 °FPassing clouds.6 mph51%30.30 "HgN/A
11:20 AM55 °FPassing clouds.8 mph47%30.30 "HgN/A
10:50 AM55 °FPassing clouds.7 mph51%30.30 "HgN/A
10:20 AM54 °FPassing clouds.7 mph54%30.30 "HgN/A
9:50 AM52 °FPassing clouds.10 mph58%30.30 "HgN/A
9:20 AM52 °FPassing clouds.9 mph62%30.30 "HgN/A
8:50 AM50 °FSunny.9 mph62%30.27 "Hg10 mi
8:20 AM50 °FSunny.10 mph67%30.27 "Hg10 mi
7:50 AM46 °FPassing clouds.5 mph76%30.27 "HgN/A
7:20 AM45 °FSunny.3 mph81%30.27 "Hg10 mi
6:20 AM39 °FClear.6 mph93%30.24 "Hg10 mi
5:50 AM39 °FClear.6 mph93%30.24 "Hg10 mi
5:20 AM39 °FClear.6 mph93%30.24 "Hg10 mi
4:50 AM37 °FClear.5 mph100%30.21 "Hg10 mi
4:20 AM37 °FClear.5 mph100%30.21 "Hg10 mi
3:50 AM39 °FClear.3 mph93%30.21 "Hg10 mi
3:20 AM41 °FClear.6 mph93%30.21 "Hg10 mi
2:20 AM41 °FClear.3 mph93%30.18 "Hg10 mi
1:50 AM41 °FClear.6 mph93%30.18 "Hg10 mi
1:20 AM43 °FClear.6 mph87%30.18 "Hg10 mi
12:50 AM45 °FClear.8 mph87%30.18 "Hg10 mi
12:20 AM45 °FClear.7 mph87%30.18 "Hg10 mi
11:50 PM
Mon, May 2
45 °FPassing clouds.7 mph81%30.15 "HgN/A
11:20 PM45 °FPassing clouds.8 mph87%30.15 "HgN/A
10:50 PM45 °FClear.8 mph81%30.15 "Hg10 mi
10:20 PM46 °FClear.9 mph76%30.12 "Hg10 mi
9:50 PM46 °FClear.8 mph76%30.12 "Hg10 mi
9:20 PM46 °FSunny.8 mph76%30.09 "Hg10 mi
8:50 PM46 °FSunny.9 mph76%30.09 "Hg10 mi
8:20 PM50 °FPassing clouds.8 mph82%30.09 "HgN/A
7:50 PM52 °FScattered clouds.9 mph77%30.07 "HgN/A
7:20 PM50 °FScattered clouds.12 mph82%30.07 "HgN/A
6:50 PM54 °FLight rain. Partly sunny.14 mph88%30.07 "Hg6 mi
6:20 PM54 °FDrizzle. Partly sunny.12 mph94%30.07 "Hg4 mi
5:50 PM54 °FScattered showers. Broken clouds.14 mph88%30.07 "Hg5 mi
5:20 PM54 °FMostly cloudy.14 mph88%30.07 "HgN/A
4:50 PM55 °FLight rain. Partly sunny.14 mph82%30.07 "HgN/A
4:20 PM57 °FPartly sunny.16 mph77%30.09 "HgN/A
Weather by CustomWeather, © 2016

See weather overviewHow to use our weather pages